Location: Bu�n Treun
(12.1333°N, 108.3167°E)
Time: 23:54:21
(UTC+00:00)

ASC 2 Rocket - Pass Details

Date: 13 July 2020
Orbit: 555 x 2345 km, 24.0° (Epoch: 14 August)

Event Time Altitude Azimuth Distance (km) Brightness Sun altitude
Exits shadow 20:31:38 55° 191° (S) 1,179 4.1 -26.5°
Maximum altitude 20:32:39 61° 152° (SSE) 1,162 4.3 -26.3°
Drops below altitude 10° 20:41:10 10° 74° (ENE) 3,568 7.9 -24.6°
Sets 20:44:59 0° 72° (ENE) 4,856 9.0 -23.8°
